Location: Unspecified
(0.0000°N, 0.0000°E)
Time: 22:37:46
(UTC+01:00)

DELTA 2 R/B (1) - Visible Passes

Search period start: 18 December 2014 00:00
Search period end: 28 December 2014 00:00
Orbit: 792 x 803 km, 39.6° (Epoch: 18 December)

Date Brightness Start Highest point End Pass type
(mag) Time Alt. Az. Time Alt. Az. Time Alt. Az.
20 Dec 6.0 21:42:51 10° SSW 21:43:56 14° S 21:43:56 14° S visible
21 Dec 5.5 21:12:27 10° S 21:14:58 19° SSE 21:14:58 19° SSE visible
22 Dec 5.3 20:42:05 10° S 20:45:58 19° SE 20:46:03 19° SE visible
23 Dec 5.4 20:11:47 10° S 20:15:18 17° SE 20:17:11 14° ESE visible
23 Dec 5.8 21:56:09 10° SW 21:57:59 21° WSW 21:57:59 21° WSW visible
24 Dec 5.6 19:41:32 10° S 19:44:37 15° SE 19:47:41 10° ESE visible
24 Dec 4.6 21:25:29 10° SW 21:29:11 43° SW 21:29:11 43° SW visible
25 Dec 3.4 20:54:50 10° SW 21:00:25 88° SSE 21:00:25 88° SSE visible
26 Dec 3.5 20:24:11 10° SW 20:29:48 79° SE 20:31:42 43° ENE visible
27 Dec 3.6 19:53:34 10° SW 19:59:09 70° SE 20:03:01 20° ENE visible
27 Dec 5.9 21:41:58 10° W 21:43:50 15° WNW 21:43:50 15° WNW visible
